Regional Weather Roundup
Issued by NWS

Home | Current Version | Previous Version | Text Only | Print | Product List | Glossary On
Versions: 1 2 3 4 5 6 7 8 9 10 11 12 13 14 15 16 17 18 19 20 21 22 23 24 25 26 27 28 29 30 31 32 33 34 35 36 37 38 39 40 41 42 43 44 45 46 47 48 49 50
000
ASUS44 KFWD 100515
RWRTX
NORTH TEXAS HOURLY WEATHER ROUNDUP
NATIONAL WEATHER SERVICE FORT WORTH TX
1100 PM CST TUE FEB 09 2016

NOTE: "FAIR" INDICATES FEW OR NO CLOUDS BELOW 12,000 FEET WITH NO
SIGNIFICANT WEATHER AND/OR OBSTRUCTIONS TO VISIBILITY.

TXZ118-119-100600-
DALLAS/FORT WORTH METROPLEX

CITY           SKY/WX    TMP DP  RH WIND       PRES   REMARKS
DFW AIRPORT    CLEAR     44  25  47 N6        30.31R
DALLAS LOVE    CLEAR     46  24  42 N6        30.32R
FTW MEACHAM    CLEAR     45  25  45 N7        30.32R
DAL-EXECUTIVE  CLEAR     46  23  40 N6        30.30R
FTW-ALLIANCE   PTCLDY    41  25  53 N5        30.32R WCI  38
FTW-NAS-JRB    CLEAR     48  24  39 N5        30.34R
FTW-SPINKS     CLEAR     43  27  51 CALM      30.34R
ARLINGTON      CLEAR     48  25  40 N8        30.32R
GRAND PRAIRIE  CLEAR     46  24  40 N3        30.33R
ADDISON        CLEAR     47  26  44 N7        30.34R
MESQUITE       CLEAR     44  26  48 NW5       30.32R
LANCASTER      PTCLDY    46  21  37 CALM      30.33R
$$

TXZ091>094-102>105-117-120-121-131>134-100600-
NORTH CENTRAL TEXAS

CITY           SKY/WX    TMP DP  RH WIND       PRES   REMARKS
SHRMAN/DENISON CLEAR     39  23  52 CALM      30.32R
GAINESVILLE    CLEAR     36  25  62 N7        30.34R WCI  31
BOWIE          CLEAR     36  25  64 CALM      30.32S
BRIDGEPORT     CLEAR     41  28  60 NE3       30.35R
DECATUR        CLEAR     42  22  45 NE6       30.32R WCI  38
DENTON         CLEAR     41  24  51 N5        30.32R WCI  38
MCKINNEY       CLEAR     42  24  49 NW6       30.31R WCI  38
GREENVILLE     CLEAR     43  25  49 N7        30.31R WCI  39
ROCKWALL       CLEAR     45  26  47 N6        30.30R
TERRELL        CLEAR     46  24  42 NW3       30.32R
WAXAHACHIE     CLEAR     45  28  52 N7        30.33R
CLEBURNE       CLEAR     45  27  49 NE14      30.33R WCI  38
GRANBURY       CLEAR     43  29  57 CALM      30.34R
$$

TXZ083>090-098>101-113>116-127>130-139>142-154-155-100600-
WESTERN NORTH TEXAS

CITY           SKY/WX    TMP DP  RH WIND       PRES   REMARKS
WICHITA FALLS  CLEAR     38  25  59 NE3       30.33R
WF-KICKAPOO    CLEAR     40  26  55 CALM      30.35R
VERNON         CLEAR     40  22  49 CALM      30.35R
ABILENE        CLEAR     47  30  51 SE6       30.30R
ABILENE-DYESS  CLEAR     44  29  55 E7        30.30R
BRECKENRIDGE   CLEAR     43  29  59 CALM      30.31S
GRAHAM         CLEAR     42  28  59 NE5       30.32R WCI  39
MINERAL WELLS  CLEAR     43  27  53 N5        30.32R
STEPHENVILLE   CLEAR     44  28  54 CALM      30.34R
COMANCHE       CLEAR     49  31  49 CALM      30.31S
BROWNWOOD      CLEAR     41  28  60 CALM      30.32R
COLEMAN        CLEAR     49  29  45 N3        30.32R
$$

TXZ143>147-156>162-174-175-100600-
CENTRAL TEXAS

CITY           SKY/WX    TMP DP  RH WIND       PRES   REMARKS
WACO           CLEAR     42  29  59 N3        30.32R
WACO-TSTC      CLEAR     41  27  56 CALM      30.31R
WACO-MCGREGOR  CLEAR     46  29  51 N6        30.32R
HILLSBORO      CLEAR     45  26  46 NE6       30.32R
CORSICANA      CLEAR     49  26  41 NE9       30.32R
MEXIA          CLEAR     47  27  44 NW5       30.30R
HEARNE         CLEAR     43  31  64 CALM      30.32R
CAMERON        CLEAR     51  31  47 NE3       30.32R
TEMPLE         CLEAR     49  29  46 N6        30.32R
KILLEEN        CLEAR     49  29  46 N1        30.32R
KILLEEN-SKYLRK CLEAR     49  29  46 CALM      30.32R
FORT HOOD      CLEAR     49  29  46 CALM      30.30R
GATESVILLE     CLEAR     43  32  65 CALM      30.33R
HAMILTON       CLEAR     49  29  45 CALM      30.32R
LAMPASAS       CLEAR     47  33  58 CALM      30.32R
$$

TXZ095>097-106>112-122>126-135>138-148>153-164>167-100600-
EAST TEXAS

CITY           SKY/WX    TMP DP  RH WIND       PRES   REMARKS
PARIS          CLEAR     39  18  41 NW10      30.31R WCI  32
SULPHUR SPRNGS CLEAR     44  24  44 N10       30.34R WCI  39
MOUNT PLEASANT CLEAR     43  21  42 NW8       30.32R WCI  38
GILMER         PTCLDY    43  22  43 NW6       30.31R WCI  39
MINEOLA        PTCLDY    45  23  42 NW8       30.32R
TYLER          CLEAR     47  22  37 N9        30.31R
LONGVIEW       PTCLDY    43  23  45 NW7       30.29R WCI  39
MARSHALL       CLEAR     42  21  42 N7        30.31R WCI  38
ATHENS         CLEAR     45  27  49 N7        30.30R
PALESTINE      CLEAR     46  27  47 N3        30.32R
JACKSONVILLE   PTCLDY    48  25  40 N7        30.31R
HENDERSON      CLEAR     46  24  43 N5        30.31R
CENTER         FAIR      46  26  47 NW7       30.28R
NACOGDOCHES    CLEAR     41  27  56 N7        30.28R WCI  36
LUFKIN         CLEAR     45  28  51 CALM      30.29R
$$

SUPPLEMENTAL OBSERVATIONS (CENTRAL)

CITY           SKY/WX    TMP DP  RH WIND       PRES   REMARKS
LAKE TEXOMA      N/A     45  23  42 N7          N/A
CADDO GRASSLND   N/A     37  23  56 N1          N/A
PAT MAYSE LAKE   N/A     37  19  48 NW3         N/A
GREENVILLE       N/A     41  23  48 N7          N/A  WCI  36
CEDAR HILL       N/A     43  25  49 N1          N/A
MCGREGOR         N/A     41  30  65 CALM        N/A
TEMPLE           N/A     52  28  40 NE7         N/A
$$

SUPPLEMENTAL OBSERVATIONS (WEST)

CITY           SKY/WX    TMP DP  RH WIND       PRES   REMARKS
MILLERS CREEK    N/A     39  32  75 SE3         N/A
POSSUM KINGDOM   N/A     45  23  42 N1          N/A
LBJ GRASSLAND    N/A     45  23  42 N7          N/A
GRANBURY         N/A     43  27  52 NW2         N/A
HAMBY            N/A     41  28  60 CALM        N/A
IVIE RESERVOIR   N/A     48  25  40 VRB5G17     N/A
COLORADO BEND    N/A     50  30  46 SE6         N/A
$$

SUPPLEMENTAL OBSERVATIONS (EAST)

CITY           SKY/WX    TMP DP  RH WIND       PRES   REMARKS
TEXARKANA        N/A     41  19  42 NW5         N/A  WCI  38
LINDEN           N/A     43  21  42 NW3         N/A
CADDO LAKE       N/A     37  23  56 CALM        N/A
LUFKIN           N/A     43  32  65 MISG        N/A
N SABINE NF      N/A     37  27  65 MISG        N/A
$$

SUPPLEMENTAL OBSERVATIONS ARE A COLLECTION OF AUTOMATED INSTRUMENTS
THAT ARE MAINTAINED BY A VARIETY OF FEDERAL AND STATE AGENCIES.
CERTAIN ELEMENTS...SUCH AS HUMIDITY VALUES AND SUSTAINED WIND
SPEEDS...MAY BE APPROXIMATED.




USA.gov is the U.S. government's official web portal to all federal, state and local government web resources and services.